GW3210 Weather Reports


time (UTC)temp
C
wind
direction
speed
KPH
gust
KPH
rain 1hr
cm
rain 24hr
cm
rain mn
cm
humidity
%
barometer
mb
20260831060137 16 293 1.6 1.6 0.00 0.00 0.00 58 1016.9
20260831055116 16 315 1.6 4.8 0.00 0.00 0.00 57 1017.0
20260831054137 16 293 3.2 4.8 0.00 0.00 0.00 57 1017.1
20260831053117 16 315 4.8 8.0 0.00 0.00 0.00 57 1017.1
20260831052116 16 315 8.0 11.3 0.00 0.00 0.00 57 1017.3
20260831051116 16 315 4.8 8.0 0.00 0.00 0.00 56 1017.3
20260831050117 16 315 6.4 11.3 0.00 0.00 0.00 56 1017.4
20260831045116 16 338 3.2 4.8 0.00 0.00 0.00 55 1017.4
20260831044116 16 315 3.2 4.8 0.00 0.00 0.00 55 1017.5
20260831043136 17 338 4.8 6.4 0.00 0.00 0.00 54 1017.5
20260831042116 17 315 4.8 6.4 0.00 0.00 0.00 53 1017.5
20260831041116 17 315 4.8 6.4 0.00 0.00 0.00 53 1017.5
20260831040116 17 315 3.2 4.8 0.00 0.00 0.00 52 1017.5
20260831035116 17 293 6.4 9.7 0.00 0.00 0.00 51 1017.6
20260831034117 17 315 4.8 6.4 0.00 0.00 0.00 50 1017.5
20260831033137 18 293 3.2 4.8 0.00 0.00 0.00 49 1017.5
20260831032116 18 315 3.2 4.8 0.00 0.00 0.00 48 1017.5
20260831031136 18 315 6.4 9.7 0.00 0.00 0.00 48 1017.6
20260831030136 18 293 6.4 11.3 0.00 0.00 0.00 47 1017.6
20260831025116 19 338 4.8 6.4 0.00 0.00 0.00 46 1017.5
20260831024116 19 338 6.4 12.9 0.00 0.00 0.00 45 1017.7
20260831023116 20 315 8.0 12.9 0.00 0.00 0.00 44 1017.8
20260831022136 20 338 8.0 17.7 0.00 0.00 0.00 43 1017.8
20260831021136 20 0 6.4 9.7 0.00 0.00 0.00 42 1017.9
20260831020116 20 338 8.0 12.9 0.00 0.00 0.00 41 1017.9
20260831014116 21 338 8.0 14.5 0.00 0.00 0.00 38 1018.1
20260831013116 22 293 12.9 17.7 0.00 0.00 0.00 37 1018.2
20260831012116 22 315 11.3 16.1 0.00 0.00 0.00 37 1018.3
20260831011116 22 270 8.0 14.5 0.00 0.00 0.00 36 1018.4
20260831010116 22 0 14.5 20.9 0.00 0.00 0.00 35 1018.5
20260831005116 22 293 9.7 16.1 0.00 0.00 0.00 36 1018.6
20260831004116 23 338 9.7 16.1 0.00 0.00 0.00 35 1018.6
20260831003116 23 315 9.7 19.3 0.00 0.00 0.00 34 1018.8
20260831002115 23 315 9.7 17.7 0.00 0.00 0.00 33 1018.8
20260831001116 23 315 4.8 6.4 0.00 0.00 0.00 33 1019.0
20260831000116 23 270 6.4 12.9 0.00 0.00 0.00 33 1018.9
20260830235116 23 0 8.0 16.1 0.00 0.00 0.00 33 1018.9
20260830234116 23 338 6.4 11.3 0.00 0.00 0.00 32 1019.0
20260830233115 23 293 6.4 9.7 0.00 0.00 0.00 33 1019.2
20260830232116 23 315 16.1 22.5 0.00 0.00 0.00 33 1019.2
20260830231116 23 338 8.0 16.1 0.00 0.00 0.00 32 1019.4
20260830230116 23 338 4.8 6.4 0.00 0.00 0.00 32 1019.5
20260830225116 23 293 11.3 17.7 0.00 0.00 0.00 31 1019.7
20260830224115 23 315 6.4 8.0 0.00 0.00 0.00 34 1019.9
20260830223135 22 315 8.0 12.9 0.00 0.00 0.00 31 1020.2
20260830222115 22 315 4.8 9.7 0.00 0.00 0.00 32 1020.3
20260830221115 22 338 11.3 22.5 0.00 0.00 0.00 34 1020.5
20260830220115 22 0 12.9 17.7 0.00 0.00 0.00 34 1020.7
20260830215116 22 338 4.8 12.9 0.00 0.00 0.00 35 1020.7
20260830214115 22 315 4.8 9.7 0.00 0.00 0.00 35 1020.8
20260830213115 22 315 4.8 8.0 0.00 0.00 0.00 35 1021.0
20260830212116 22 338 4.8 4.8 0.00 0.00 0.00 35 1021.0
20260830211115 22 270 6.4 11.3 0.00 0.00 0.00 34 1021.2
20260830210115 22 293 8.0 12.9 0.00 0.00 0.00 34 1021.2
20260830205116 21 293 8.0 14.5 0.00 0.00 0.00 35 1021.4
20260830204116 21 0 9.7 14.5 0.00 0.00 0.00 35 1021.6
20260830203135 21 45 3.2 6.4 0.00 0.00 0.00 36 1021.7
20260830202115 21 293 6.4 11.3 0.00 0.00 0.00 36 1021.8
20260830201115 21 315 8.0 14.5 0.00 0.00 0.00 37 1022.0
20260830200115 21 293 4.8 9.7 0.00 0.00 0.00 36 1021.9
20260830195135 20 293 6.4 8.0 0.00 0.00 0.00 37 1021.9
20260830194115 20 315 3.2 8.0 0.00 0.00 0.00 38 1022.0
20260830193115 20 270 6.4 11.3 0.00 0.00 0.00 40 1022.0
20260830192115 19 293 6.4 11.3 0.00 0.00 0.00 41 1022.3
20260830191136 19 338 1.6 4.8 0.00 0.00 0.00 43 1022.3
20260830190115 20 315 8.0 16.1 0.00 0.00 0.00 41 1022.4
20260830185137 19 0 1.6 3.2 0.00 0.00 0.00 43 1022.6
20260830184117 19 338 6.4 9.7 0.00 0.00 0.00 46 1022.5
20260830183117 19 293 4.8 6.4 0.00 0.00 0.00 44 1022.5
20260830182117 19 293 6.4 17.7 0.00 0.00 0.00 43 1022.5
20260830181117 18 270 6.4 12.9 0.00 0.00 0.00 48 1022.5
20260830180117 18 293 8.0 12.9 0.00 0.00 0.00 47 1022.4
20260830175117 17 293 4.8 4.8 0.00 0.00 0.00 51 1022.3
20260830174117 17 270 4.8 6.4 0.00 0.00 0.00 51 1022.3
20260830173115 17 23 3.2 6.4 0.00 0.00 0.00 52 1022.3
20260830172117 16 270 1.6 3.2 0.00 0.00 0.00 55 1022.4
20260830171117 16 270 6.4 9.7 0.00 0.00 0.00 57 1022.4
20260830170117 15 0.0 1.6 0.00 0.00 0.00 59 1022.4
20260830165117 14 293 4.8 6.4 0.00 0.00 0.00 60 1022.3
20260830164117 13 293 3.2 4.8 0.00 0.00 0.00 60 1022.2
20260830163117 13 0 1.6 3.2 0.00 0.00 0.00 63 1022.3
20260830162137 13 338 1.6 3.2 0.00 0.00 0.00 64 1022.4
20260830161117 12 0 1.6 3.2 0.00 0.00 0.00 65 1022.5
20260830160117 12 45 1.6 3.2 0.00 0.00 0.00 67 1022.5
20260830155157 12 0.0 1.6 0.00 0.00 0.00 68 1022.5
20260830154137 12 45 1.6 3.2 0.00 0.00 0.00 71 1022.5
20260830153116 11 0.0 1.6 0.00 0.00 0.00 76 1022.6
20260830152157 11 0.0 1.6 0.00 0.00 0.00 77 1022.6
20260830151117 11 0.0 3.2 0.00 0.00 0.00 77 1022.7
20260830150116 11 0.0 0.0 0.00 0.00 0.00 77 1022.7
20260830145137 11 0.0 1.6 0.00 0.00 0.00 78 1022.6
20260830144137 10 315 1.6 1.6 0.00 0.00 0.00 77 1022.7
20260830143117 10 315 1.6 3.2 0.00 0.00 0.00 74 1022.6
20260830142116 10 0.0 0.0 0.00 0.00 0.00 74 1022.6
20260830141137 10 315 1.6 3.2 0.00 0.00 0.00 73 1022.6
20260830140117 10 315 1.6 1.6 0.00 0.00 0.00 73 1022.6
20260830135117 10 0.0 0.0 0.00 0.00 0.00 73 1022.5
20260830134137 10 0.0 0.0 0.00 0.00 0.00 73 1022.5
20260830133137 10 0.0 0.0 0.00 0.00 0.00 72 1022.4
20260830132136 10 0.0 0.0 0.00 0.00 0.00 72 1022.4
20260830131116 10 0.0 0.0 0.00 0.00 0.00 72 1022.3
20260830130116 10 0.0 0.0 0.00 0.03 0.00 72 1022.4
20260830125117 10 0.0 0.0 0.00 0.03 0.00 72 1022.5
20260830124116 10 0.0 1.6 0.00 0.05 0.00 72 1022.4
20260830123118 10 315 1.6 1.6 0.00 0.08 0.00 72 1022.3
20260830122116 10 315 1.6 3.2 0.00 0.10 0.00 71 1022.3
20260830121116 11 315 3.2 3.2 0.00 0.10 0.00 76 1022.4
20260830120116 11 315 1.6 3.2 0.00 0.10 0.00 77 1022.3
20260830115116 11 293 3.2 4.8 0.00 0.10 0.00 77 1022.3
20260830114116 11 0.0 1.6 0.00 0.10 0.00 76 1022.5
20260830113116 11 293 1.6 1.6 0.00 0.10 0.00 73 1022.3
20260830112116 10 293 1.6 1.6 0.00 0.10 0.00 71 1022.2
20260830111116 11 293 1.6 3.2 0.00 0.10 0.00 70 1022.2
20260830110117 11 0.0 1.6 0.00 0.10 0.00 69 1022.3
20260830105116 11 293 1.6 1.6 0.00 0.10 0.00 70 1022.3
20260830104156 11 293 1.6 1.6 0.00 0.10 0.00 70 1022.3
20260830103117 11 0.0 1.6 0.00 0.10 0.00 70 1022.1
20260830102136 11 293 1.6 3.2 0.00 0.10 0.00 70 1022.0
20260830101116 11 293 1.6 3.2 0.00 0.10 0.00 68 1021.9
20260830100116 11 293 1.6 1.6 0.00 0.10 0.00 67 1021.9
20260830095116 11 0.0 0.0 0.00 0.10 0.00 67 1022.0
20260830094118 11 0.0 1.6 0.00 0.10 0.00 67 1022.0
20260830093117 11 293 1.6 3.2 0.00 0.10 0.00 66 1022.2
20260830092116 11 293 1.6 3.2 0.00 0.10 0.00 66 1022.1
20260830091116 11 293 1.6 1.6 0.00 0.10 0.00 66 1022.1
20260830090136 12 315 1.6 3.2 0.00 0.10 0.00 65 1022.1
20260830085116 12 293 3.2 4.8 0.00 0.10 0.00 65 1022.2
20260830084116 12 0.0 3.2 0.00 0.10 0.00 65 1022.2
20260830083116 12 315 3.2 8.0 0.00 0.10 0.00 65 1022.3
20260830082116 12 293 8.0 12.9 0.00 0.10 0.00 65 1022.3
20260830081116 12 315 4.8 6.4 0.00 0.10 0.00 65 1022.2
20260830080116 12 293 3.2 4.8 0.00 0.10 0.00 64 1022.1
20260830065116 13 315 4.8 6.4 0.00 0.10 0.10 61 1022.2
20260830064116 13 293 3.2 4.8 0.00 0.10 0.10 60 1022.2
20260830063116 13 293 3.2 6.4 0.00 0.10 0.10 59 1022.1
20260830062116 13 338 3.2 4.8 0.00 0.10 0.10 59 1022.0